Location: Castelbiague
(43.0361°N, 0.9246°E)
Time: 12:52:45
(UTC+00:00)

Meteor 1-4 Rocket - Pass Details

Date: 25 October 2021
Orbit: 446 x 496 km, 81.2° (Epoch: 29 November)

Event Time Altitude Azimuth Distance (km) Brightness Sun altitude
Rises 04:16:46 0° 7° (N) 2,470 6.3 -23.5°
Reaches altitude 10° 04:19:24 10° 28° (NNE) 1,598 5.6 -23.0°
Maximum altitude 04:21:45 17° 71° (ENE) 1,236 5.5 -22.6°
Drops below altitude 10° 04:24:07 10° 113° (ESE) 1,605 6.1 -22.2°
Sets 04:26:45 0° 135° (SE) 2,485 6.8 -21.7°
